Location: Boitzum
(52.1496°N, 9.6943°E)
Time: 01:27:34
(UTC+00:00)

Cosmos 2074 Rocket - Pass Details

Date: 22 April 2026
Orbit: 967 x 984 km, 82.9° (Epoch: 19 May)

Event Time Altitude Azimuth Distance (km) Brightness Sun altitude
Rises 20:29:58 0° 265° (W) 3,680 7.6 -15.8°
Reaches altitude 10° 20:35:58 10° 310° (NW) 2,744 7.7 -16.4°
Maximum altitude 20:36:27 10° 314° (NW) 2,739 7.7 -16.5°
Drops below altitude 10° 20:36:56 10° 319° (NW) 2,746 7.7 -16.5°
Sets 20:43:00 0° 3° (N) 3,705 7.8 -17.1°
